Upper Bear Creek Observed Data For Previous 48 Hours

Caption
Day and Hour Reservoir Elevation (behind dam)* Tailwater Elevation (below dam)* Average Hourly Discharge*
2/21/2018 1 AM CST 796.72 727.70 600
2/21/2018 2 AM CST 796.71 727.73 600
2/21/2018 3 AM CST 796.69 727.74 600
2/21/2018 4 AM CST 796.68 727.73 600
2/21/2018 5 AM CST 796.66 727.74 600
2/21/2018 6 AM CST 796.65 727.72 600
2/21/2018 7 AM CST 796.63 727.72 600
2/21/2018 8 AM CST 796.62 727.70 600
2/21/2018 9 AM CST 796.60 727.72 600
2/21/2018 10 AM CST 796.59 727.77 600
2/21/2018 11 AM CST 796.57 727.75 600
2/21/2018 12 PM CST 796.56 727.69 600
2/21/2018 1 PM CST 796.54 727.70 600
2/21/2018 2 PM CST 796.52 727.72 600
2/21/2018 3 PM CST 796.51 727.71 600
2/21/2018 4 PM CST 796.50 727.77 600
2/21/2018 5 PM CST 796.48 727.70 600
2/21/2018 6 PM CST 796.47 727.73 600
2/21/2018 7 PM CST 796.45 727.75 600
2/21/2018 8 PM CST 796.44 727.73 600
2/21/2018 9 PM CST 796.43 727.74 600
2/21/2018 10 PM CST 796.41 727.72 600
2/21/2018 11 PM CST 796.40 727.78 600
2/22/2018 12 AM CST 796.38 727.72 600
2/22/2018 1 AM CST 796.36 727.71 600
2/22/2018 2 AM CST 796.35 727.73 600
2/22/2018 3 AM CST 796.33 727.78 600
2/22/2018 4 AM CST 796.32 727.71 600
2/22/2018 5 AM CST 796.31 727.76 600
2/22/2018 6 AM CST 796.29 727.71 600
2/22/2018 7 AM CST 796.27 727.71 600
2/22/2018 8 AM CST 796.26 727.74 600
2/22/2018 9 AM CST 796.23 727.69 600
2/22/2018 10 AM CST 796.23 727.45 600
2/22/2018 11 AM CST 796.25 727.33 330
2/22/2018 12 PM CST 796.26 727.32 330
2/22/2018 1 PM CST 796.25 727.33 330
2/22/2018 2 PM CST 796.26 727.32 330
2/22/2018 3 PM CST 796.27 727.34 330
2/22/2018 4 PM CST 796.27 727.33 330
2/22/2018 5 PM CST 796.27 727.32 330
2/22/2018 6 PM CST 796.27 727.32 330
2/22/2018 7 PM CST 796.28 727.31 330
2/22/2018 8 PM CST 796.28 727.30 330
2/22/2018 9 PM CST 796.27 727.32 330
2/22/2018 10 PM CST 796.28 727.34 330
2/22/2018 11 PM CST 796.28 727.32 330
2/23/2018 12 AM CST 796.28 727.30 330
2/23/2018 1 AM CST 796.27 727.35 330
2/23/2018 2 AM CST 796.27 727.32 330
2/23/2018 3 AM CST 796.27 727.34 330
2/23/2018 4 AM CST 796.27 727.31 330
2/23/2018 5 AM CST 796.27 727.31 330
2/23/2018 6 AM CST 796.27 727.32 330
2/23/2018 7 AM CST 796.27 727.32 330
2/23/2018 8 AM CST 796.27 727.32 330
2/23/2018 9 AM CST 796.26 727.31 330

Elevations are in feet above sea level. Discharges are in cubic feet per second and are reported at the end of the hour.